Location: Home
(42.5358°N, 72.7383°W)
Time: 06:07:42
(UTC-05:00)

Explorer 11/Cluster Stage 4 - Pass Details

Date: 09 December 2021
Orbit: 467 x 1255 km, 28.8° (Epoch: 25 January)

Event Time Altitude Azimuth Distance (km) Brightness Sun altitude
Rises 02:29:41 0° 248° (WSW) 3,242 - -50.4°
Reaches altitude 10° 02:32:33 10° 232° (SW) 2,458 - -49.9°
Maximum altitude 02:36:54 21° 185° (S) 1,988 - -49.1°
Drops below altitude 10° 02:41:52 10° 140° (SE) 2,869 - -48.2°
Exits shadow 02:43:03 - 134° (SE) 3,199 9.9 -48.0°
Sets 02:45:34 0° 125° (SE) 3,956 10.6 -47.6°
